User: anonymous
Location: Sawmill Trailhead
(33.5800°N, 116.4497°W)
Time: 14:19:09
(UTC-07:00)
Language:

Uosat F - Orbit

View from above orbital plane
View from above orbital plane
View from above satellite
View from above satellite

Ground track
Ground track

The orbit data is extracted from the following two-line orbital elements,

1 21575U 91050B   14244.74972274  .00000150  00000-0  61523-4 0   978
2 21575 098.7071 222.2483 0008555 096.1179 317.2892 14.40414230214500
Epoch (UTC): 01 September 2014 17:59:36
Eccentricity: 0.0008555
inclination: 98.7071°
perigee height: 751 km
apogee height: 763 km
right ascension of ascending node: 222.2483°
argument of perigee: 96.1179°
revolutions per day: 14.40414230
mean anomaly at epoch: 317.2892°
orbit number at epoch: 21450

The dashed part of the orbit path shows where the satellite is in the earth's shadow,  

DLR